SAS969 ENGM-ENVA

Flight info

Callsign SAS969
Flight time 0h 41m
Altitude 28000
Route RIBBE DCT GIGNI DCT VEVOD
Aircraft A320/M-SDE3FGHIRWY/LB1

Departure

Time 2026-05-05 19:13
Airport Oslo-Gardermoen International Airport (ENGM)

Arrival

Time 2026-05-05 19:54
Airport Trondheim Airport, Værnes (ENVA)
Time Latitude Longitude Altitude Speed Heading
2026-05-05 18:34 60.19551 11.09915 683 ft 0 kts 108°
2026-05-05 18:59 60.19552 11.09912 681 ft 2 kts 108°
2026-05-05 18:59 60.19561 11.09865 681 ft 4 kts 118°
2026-05-05 18:59 60.19575 11.09819 681 ft 4 kts 130°
2026-05-05 19:00 60.19594 11.09781 681 ft 4 kts 139°
2026-05-05 19:00 60.19614 11.09744 681 ft 4 kts 129°
2026-05-05 19:00 60.19631 11.09704 680 ft 4 kts 135°
2026-05-05 19:00 60.19643 11.09682 680 ft 1 kts 135°
2026-05-05 19:01 60.19644 11.09680 681 ft 0 kts 135°
2026-05-05 19:03 60.19643 11.09683 681 ft 1 kts 130°
2026-05-05 19:04 60.19644 11.09722 679 ft 4 kts 66°
2026-05-05 19:04 60.19681 11.09753 681 ft 7 kts 14°
2026-05-05 19:04 60.19722 11.09715 681 ft 9 kts 285°
2026-05-05 19:04 60.19734 11.09575 681 ft 11 kts 282°
2026-05-05 19:05 60.19755 11.09420 679 ft 12 kts 286°
2026-05-05 19:05 60.19780 11.09248 681 ft 14 kts 286°
2026-05-05 19:05 60.19810 11.09038 676 ft 17 kts 286°
2026-05-05 19:05 60.19844 11.08803 677 ft 14 kts 284°
2026-05-05 19:06 60.19794 11.08681 678 ft 12 kts 196°
2026-05-05 19:06 60.19720 11.08644 678 ft 10 kts 197°
2026-05-05 19:06 60.19656 11.08606 678 ft 9 kts 195°
2026-05-05 19:06 60.19620 11.08586 678 ft 8 kts 195°
2026-05-05 19:07 60.19569 11.08556 678 ft 5 kts 201°
2026-05-05 19:07 60.19546 11.08530 679 ft 6 kts 197°
2026-05-05 19:07 60.19508 11.08516 680 ft 6 kts 190°
2026-05-05 19:07 60.19447 11.08484 680 ft 12 kts 197°
2026-05-05 19:08 60.19356 11.08430 677 ft 14 kts 195°
2026-05-05 19:08 60.19269 11.08386 680 ft 12 kts 193°
2026-05-05 19:08 60.19225 11.08279 677 ft 9 kts 271°
2026-05-05 19:08 60.19245 11.08118 671 ft 13 kts 284°
2026-05-05 19:09 60.19249 11.08094 671 ft 0 kts 286°
2026-05-05 19:11 60.19249 11.08092 671 ft 1 kts 286°
2026-05-05 19:11 60.19264 11.07989 667 ft 11 kts 286°
2026-05-05 19:11 60.19295 11.07841 668 ft 11 kts 328°
2026-05-05 19:12 60.19330 11.07850 669 ft 0 kts 19°
2026-05-05 19:12 60.19344 11.07859 669 ft 12 kts 19°
2026-05-05 19:13 60.19651 11.08036 671 ft 83 kts 15°
2026-05-05 19:13 60.20412 11.08472 680 ft 142 kts 16°
2026-05-05 19:13 60.21453 11.09083 1066 ft 159 kts 14°
2026-05-05 19:13 60.22525 11.09722 1841 ft 163 kts 13°
2026-05-05 19:14 60.23626 11.10363 2520 ft 169 kts 12°
2026-05-05 19:14 60.24810 11.11043 2949 ft 185 kts 12°
2026-05-05 19:14 60.26117 11.11522 3343 ft 198 kts 356°
2026-05-05 19:14 60.27517 11.11104 3771 ft 210 kts 347°
2026-05-05 19:15 60.29009 11.10554 4260 ft 227 kts 348°
2026-05-05 19:15 60.30635 11.10016 4798 ft 246 kts 349°
2026-05-05 19:15 60.32374 11.09503 5486 ft 257 kts 350°
2026-05-05 19:15 60.34184 11.09331 6342 ft 264 kts
2026-05-05 19:16 60.36006 11.10007 7199 ft 270 kts 15°
2026-05-05 19:16 60.37783 11.11380 8076 ft 275 kts 20°
2026-05-05 19:16 60.39559 11.12871 8942 ft 279 kts 20°
2026-05-05 19:16 60.41352 11.14444 9786 ft 283 kts 21°
2026-05-05 19:17 60.43178 11.16086 10393 ft 294 kts 21°
2026-05-05 19:17 60.45116 11.17833 10708 ft 316 kts 21°
2026-05-05 19:17 60.47196 11.19672 11011 ft 334 kts 21°
2026-05-05 19:17 60.49353 11.21558 11674 ft 340 kts 21°
2026-05-05 19:18 60.51540 11.23463 12422 ft 344 kts 20°
2026-05-05 19:18 60.53752 11.25391 13190 ft 347 kts 20°
2026-05-05 19:18 60.55979 11.27340 13923 ft 350 kts 20°
2026-05-05 19:18 60.58234 11.29318 14602 ft 354 kts 20°
2026-05-05 19:19 60.60508 11.31321 15248 ft 359 kts 19°
2026-05-05 19:19 60.62817 11.33354 15893 ft 363 kts 19°
2026-05-05 19:19 60.65153 11.35413 16522 ft 367 kts 19°
2026-05-05 19:19 60.67509 11.37498 17140 ft 371 kts 18°
2026-05-05 19:20 60.69890 11.39611 17733 ft 376 kts 18°
2026-05-05 19:20 60.72302 11.41750 18302 ft 379 kts 17°
2026-05-05 19:20 60.74784 11.43519 18776 ft 377 kts
2026-05-05 19:20 60.77360 11.44431 19254 ft 374 kts 358°
2026-05-05 19:21 60.79983 11.44760 19744 ft 376 kts 355°
2026-05-05 19:21 60.82590 11.45071 20220 ft 380 kts 355°
2026-05-05 19:21 60.85239 11.45390 20779 ft 383 kts 355°
2026-05-05 19:21 60.87907 11.45718 21302 ft 385 kts 356°
2026-05-05 19:22 60.90594 11.46059 21783 ft 389 kts 356°
2026-05-05 19:22 60.93302 11.46404 22249 ft 392 kts 355°
2026-05-05 19:22 60.96035 11.46751 22698 ft 395 kts 355°
2026-05-05 19:22 60.98797 11.47098 23152 ft 399 kts 354°
2026-05-05 19:23 61.01579 11.47442 23580 ft 402 kts 354°
2026-05-05 19:23 61.04383 11.47790 23932 ft 405 kts 354°
2026-05-05 19:23 61.07208 11.48142 24282 ft 408 kts 354°
2026-05-05 19:23 61.10031 11.48383 24644 ft 409 kts 352°
2026-05-05 19:24 61.12886 11.48458 24982 ft 410 kts 351°
2026-05-05 19:24 61.15746 11.48419 25317 ft 411 kts 350°
2026-05-05 19:24 61.18622 11.48341 25675 ft 414 kts 349°
2026-05-05 19:24 61.21508 11.48271 26018 ft 417 kts 350°
2026-05-05 19:25 61.24418 11.48232 26347 ft 420 kts 350°
2026-05-05 19:25 61.27342 11.48219 26683 ft 422 kts 350°
2026-05-05 19:25 61.30293 11.48226 27033 ft 425 kts 350°
2026-05-05 19:25 61.33262 11.48246 27382 ft 428 kts 350°
2026-05-05 19:26 61.36246 11.48269 27705 ft 430 kts 350°
2026-05-05 19:26 61.39258 11.48289 28033 ft 433 kts 350°
2026-05-05 19:26 61.42280 11.48310 28349 ft 436 kts 350°
2026-05-05 19:26 61.45323 11.48327 28683 ft 439 kts 352°
2026-05-05 19:27 61.48386 11.48338 28871 ft 442 kts 352°
2026-05-05 19:27 61.51430 11.48360 28914 ft 434 kts 352°
2026-05-05 19:27 61.57425 11.48404 28913 ft 429 kts 351°
2026-05-05 19:28 61.63393 11.48408 28913 ft 428 kts 351°
2026-05-05 19:28 61.69354 11.48415 28921 ft 429 kts 351°
2026-05-05 19:29 61.75317 11.48436 28981 ft 429 kts 353°
2026-05-05 19:29 61.81284 11.48471 28919 ft 429 kts 353°
2026-05-05 19:30 61.87253 11.48495 28912 ft 429 kts 353°
2026-05-05 19:30 61.93224 11.48524 28919 ft 429 kts 353°
2026-05-05 19:31 61.99186 11.48528 28917 ft 428 kts 352°
2026-05-05 19:31 62.05052 11.47370 28805 ft 423 kts 347°
2026-05-05 19:32 62.07974 11.46689 28514 ft 422 kts 348°
2026-05-05 19:32 62.10880 11.46008 28235 ft 420 kts 348°
2026-05-05 19:32 62.13775 11.45330 27959 ft 417 kts 348°
2026-05-05 19:32 62.16657 11.44660 27686 ft 415 kts 348°
2026-05-05 19:33 62.19483 11.44006 27419 ft 413 kts 348°
2026-05-05 19:33 62.22330 11.43349 27152 ft 410 kts 348°
2026-05-05 19:33 62.25157 11.42695 26886 ft 408 kts 348°
2026-05-05 19:33 62.27975 11.42038 26621 ft 405 kts 348°
2026-05-05 19:34 62.30765 11.41387 26251 ft 401 kts 348°
2026-05-05 19:34 62.33522 11.40739 25720 ft 396 kts 348°
2026-05-05 19:34 62.36244 11.40092 25230 ft 392 kts 349°
2026-05-05 19:35 62.40870 11.38988 24330 ft 386 kts 350°
2026-05-05 19:35 62.43524 11.38351 23857 ft 381 kts 350°
2026-05-05 19:35 62.46289 11.37694 23321 ft 377 kts 350°
2026-05-05 19:35 62.48876 11.37082 22848 ft 371 kts 350°
2026-05-05 19:36 62.51419 11.36483 22408 ft 364 kts 350°
2026-05-05 19:36 62.53923 11.35890 21985 ft 359 kts 350°
2026-05-05 19:36 62.55553 11.35504 21712 ft 356 kts 350°
2026-05-05 19:36 62.57166 11.35113 21430 ft 353 kts 350°
2026-05-05 19:37 62.61232 11.34079 20733 ft 342 kts 350°
2026-05-05 19:37 62.63596 11.33492 20213 ft 342 kts 350°
2026-05-05 19:37 62.65948 11.32941 19797 ft 338 kts 351°
2026-05-05 19:37 62.68278 11.32400 19399 ft 335 kts 351°
2026-05-05 19:38 62.70595 11.31857 18970 ft 333 kts 350°
2026-05-05 19:38 62.72615 11.31381 18604 ft 332 kts 350°
2026-05-05 19:38 62.75332 11.30734 18106 ft 329 kts 350°
2026-05-05 19:38 62.77596 11.30187 17650 ft 326 kts 350°
2026-05-05 19:39 62.79838 11.29639 17237 ft 322 kts 350°
2026-05-05 19:39 62.81309 11.29279 16959 ft 320 kts 350°
2026-05-05 19:39 62.83599 11.28738 16628 ft 317 kts 351°
2026-05-05 19:39 62.85825 11.28414 16195 ft 316 kts 354°
2026-05-05 19:40 62.88022 11.28246 15791 ft 315 kts 355°
2026-05-05 19:40 62.90187 11.28140 15385 ft 315 kts 355°
2026-05-05 19:40 62.92108 11.28051 15021 ft 315 kts 355°
2026-05-05 19:40 62.94971 11.27866 14485 ft 313 kts 355°
2026-05-05 19:41 62.97223 11.27723 14051 ft 313 kts 355°
2026-05-05 19:41 62.99391 11.27610 13623 ft 314 kts 358°
2026-05-05 19:41 63.01573 11.28129 13162 ft 317 kts
2026-05-05 19:41 63.02270 11.28446 13027 ft 316 kts
2026-05-05 19:42 63.05982 11.30134 12264 ft 314 kts
2026-05-05 19:42 63.06675 11.30446 12117 ft 314 kts
2026-05-05 19:42 63.08936 11.31453 11646 ft 313 kts
2026-05-05 19:42 63.10737 11.32252 11286 ft 312 kts
2026-05-05 19:43 63.14212 11.33792 10532 ft 311 kts
2026-05-05 19:43 63.15582 11.34611 10419 ft 306 kts 15°
2026-05-05 19:43 63.17815 11.36855 10296 ft 287 kts 21°
2026-05-05 19:43 63.19777 11.38678 10195 ft 277 kts 17°
2026-05-05 19:44 63.21531 11.40101 10082 ft 261 kts 15°
2026-05-05 19:44 63.23205 11.41417 9894 ft 252 kts 15°
2026-05-05 19:44 63.24021 11.42060 9604 ft 253 kts 15°
2026-05-05 19:44 63.26189 11.43797 8880 ft 252 kts 15°
2026-05-05 19:45 63.28158 11.45413 8406 ft 248 kts 16°
2026-05-05 19:45 63.29764 11.46783 7943 ft 245 kts 15°
2026-05-05 19:45 63.31340 11.48137 7503 ft 241 kts 16°
2026-05-05 19:45 63.32883 11.49480 7063 ft 234 kts 16°
2026-05-05 19:46 63.34590 11.50928 6954 ft 216 kts 14°
2026-05-05 19:46 63.35957 11.52069 6905 ft 205 kts 14°
2026-05-05 19:46 63.37283 11.53072 6817 ft 196 kts
2026-05-05 19:46 63.38617 11.53370 6711 ft 190 kts 352°
2026-05-05 19:47 63.39905 11.52955 6427 ft 185 kts 339°
2026-05-05 19:47 63.41096 11.52052 6130 ft 183 kts 336°
2026-05-05 19:47 63.42305 11.51105 5882 ft 185 kts 336°
2026-05-05 19:47 63.43511 11.50128 5617 ft 182 kts 331°
2026-05-05 19:48 63.43686 11.49943 5576 ft 182 kts 328°
2026-05-05 19:48 63.45230 11.46536 5141 ft 177 kts 295°
2026-05-05 19:48 63.45544 11.43910 4880 ft 176 kts 274°
2026-05-05 19:48 63.45559 11.41182 4618 ft 175 kts 272°
2026-05-05 19:49 63.45577 11.38489 4368 ft 175 kts 271°
2026-05-05 19:49 63.45588 11.36658 4204 ft 174 kts 272°
2026-05-05 19:49 63.45601 11.34086 4030 ft 173 kts 272°
2026-05-05 19:49 63.45620 11.30258 3858 ft 173 kts 271°
2026-05-05 19:50 63.45634 11.27673 3597 ft 160 kts 271°
2026-05-05 19:50 63.45645 11.25326 3361 ft 144 kts 271°
2026-05-05 19:50 63.45654 11.23161 3134 ft 137 kts 271°
2026-05-05 19:50 63.45666 11.21047 2922 ft 135 kts 271°
2026-05-05 19:51 63.45674 11.18942 2697 ft 134 kts 271°
2026-05-05 19:51 63.45681 11.16897 2503 ft 131 kts 270°
2026-05-05 19:51 63.45689 11.14866 2286 ft 130 kts 271°
2026-05-05 19:51 63.45692 11.14187 2221 ft 130 kts 269°
2026-05-05 19:52 63.45694 11.12040 1998 ft 129 kts 270°
2026-05-05 19:52 63.45717 11.08841 1633 ft 128 kts 270°
2026-05-05 19:52 63.45721 11.06850 1418 ft 128 kts 270°
2026-05-05 19:52 63.45726 11.04869 1199 ft 128 kts 270°
2026-05-05 19:53 63.45729 11.03116 1018 ft 127 kts 270°
2026-05-05 19:53 63.45713 11.01212 835 ft 127 kts 271°
2026-05-05 19:53 63.45736 10.99238 652 ft 126 kts 272°
2026-05-05 19:53 63.45748 10.97276 434 ft 127 kts 272°
2026-05-05 19:54 63.45754 10.95311 220 ft 126 kts 272°
2026-05-05 19:54 63.45755 10.93372 63 ft 119 kts 271°
2026-05-05 19:54 63.45761 10.91767 39 ft 82 kts 270°
2026-05-05 19:54 63.45763 10.90805 32 ft 32 kts 270°
2026-05-05 19:55 63.45716 10.90445 32 ft 20 kts 225°
2026-05-05 19:55 63.45618 10.90390 28 ft 12 kts 155°
2026-05-05 19:55 63.45599 10.90520 31 ft 7 kts 91°
2026-05-05 19:55 63.45598 10.90632 33 ft 10 kts 90°
2026-05-05 19:56 63.45598 10.90836 37 ft 16 kts 90°
2026-05-05 19:56 63.45598 10.91050 39 ft 12 kts 90°
2026-05-05 19:56 63.45597 10.91226 40 ft 10 kts 91°
2026-05-05 19:56 63.45596 10.91376 38 ft 9 kts 91°
2026-05-05 19:57 63.45595 10.91538 37 ft 11 kts 90°
2026-05-05 19:57 63.45595 10.91645 39 ft 10 kts 90°
2026-05-05 19:57 63.45595 10.91830 40 ft 7 kts 91°
2026-05-05 19:57 63.45551 10.91903 41 ft 9 kts 181°
2026-05-05 19:58 63.45511 10.91903 43 ft 2 kts 180°
2026-05-05 19:58 63.45500 10.91903 43 ft 0 kts 180°